Location: Casteau
(50.5142°N, 4.0161°E)
Time: 14:56:48
(UTC+00:00)

Cosmos 1833 Rocket - Pass Details

Date: 18 September 2020
Orbit: 831 x 841 km, 71.0° (Epoch: 24 October)

Event Time Altitude Azimuth Distance (km) Brightness Sun altitude
Rises 19:58:24 0° 332° (NNW) 3,408 6.8 -20.3°
Reaches altitude 10° 20:01:03 10° 341° (NNW) 2,470 5.8 -20.6°
Maximum altitude 20:06:17 37° 48° (NE) 1,299 3.5 -21.4°
Enters shadow 20:07:30 33° 75° (ENE) 1,388 3.5 -21.5°
